GW5294 Weather Reports


time (UTC)temp
C
wind
direction
speed
KPH
gust
KPH
rain 1hr
cm
rain 24hr
cm
rain mn
cm
humidity
%
barometer
mb
20260505035827 18 135 3.2 3.2 0.00 0.00 0.00 74 1013.2
20260505035323 18 129 3.2 3.2 0.00 0.00 0.00 74 1013.2
20260505034820 18 138 4.8 4.8 0.00 0.00 0.00 73 1013.2
20260505034317 18 132 3.2 3.2 0.00 0.00 0.00 73 1013.2
20260505033814 18 107 0.0 1.6 0.00 0.00 0.00 72 1013.3
20260505033311 18 165 3.2 4.8 0.00 0.00 0.00 73 1013.3
20260505032809 18 134 3.2 3.2 0.00 0.00 0.00 72 1013.3
20260505032305 18 138 4.8 6.4 0.00 0.00 0.00 71 1013.2
20260505031802 18 124 3.2 3.2 0.00 0.00 0.00 71 1013.3
20260505031258 18 130 3.2 3.2 0.00 0.00 0.00 71 1013.2
20260505030756 18 130 3.2 3.2 0.00 0.00 0.00 71 1013.5
20260505030252 18 122 1.6 3.2 0.00 0.00 0.00 70 1013.1
20260505025747 18 98 3.2 3.2 0.00 0.00 0.00 70 1013.2
20260505025245 18 143 3.2 3.2 0.00 0.00 0.00 70 1013.2
20260505024744 18 135 1.6 1.6 0.00 0.00 0.00 70 1013.1
20260505024241 18 151 3.2 3.2 0.00 0.00 0.00 69 1013.0
20260505023738 19 147 1.6 3.2 0.00 0.00 0.00 69 1012.8
20260505023235 19 146 4.8 4.8 0.00 0.00 0.00 69 1012.9
20260505022732 19 122 4.8 6.4 0.00 0.00 0.00 69 1012.8
20260505022229 19 161 4.8 4.8 0.00 0.00 0.00 68 1012.7
20260505021726 19 161 4.8 4.8 0.00 0.00 0.00 67 1012.7
20260505021223 20 115 3.2 4.8 0.00 0.00 0.00 66 1012.8
20260505020718 20 193 3.2 4.8 0.00 0.00 0.00 65 1012.8
20260505020214 20 170 4.8 4.8 0.00 0.00 0.00 65 1012.8
20260505015712 20 149 3.2 3.2 0.00 0.00 0.00 65 1012.9
20260505015208 20 177 3.2 3.2 0.00 0.00 0.00 64 1012.6
20260505014705 20 142 4.8 4.8 0.00 0.00 0.00 64 1012.5
20260505014202 20 163 3.2 4.8 0.00 0.00 0.00 63 1012.7
20260505013659 20 186 3.2 4.8 0.00 0.00 0.00 62 1012.8
20260505013156 20 180 3.2 3.2 0.00 0.00 0.00 62 1012.4
20260505012655 20 174 3.2 4.8 0.00 0.00 0.00 61 1012.4
20260505012152 20 152 3.2 3.2 0.00 0.00 0.00 61 1012.3
20260505011652 20 161 1.6 3.2 0.00 0.00 0.00 60 1012.2
20260505011150 20 140 3.2 3.2 0.00 0.00 0.00 60 1012.4
20260505010645 21 168 3.2 3.2 0.00 0.00 0.00 59 1012.3
20260505010142 21 210 3.2 3.2 0.00 0.00 0.00 57 1012.2
20260505005638 21 144 3.2 3.2 0.00 0.00 0.00 57 1012.4
20260505005135 21 210 6.4 6.4 0.00 0.00 0.00 56 1012.4
20260505004632 21 147 3.2 3.2 0.00 0.00 0.00 56 1012.1
20260505004129 21 126 3.2 4.8 0.00 0.00 0.00 55 1012.1
20260505003626 22 154 4.8 6.4 0.00 0.00 0.00 53 1012.2
20260505003124 22 142 8.0 9.7 0.00 0.00 0.00 53 1012.4
20260505002619 22 184 3.2 3.2 0.00 0.00 0.00 53 1012.5
20260505002118 22 195 4.8 4.8 0.00 0.00 0.00 51 1012.5
20260505001614 22 142 6.4 6.4 0.00 0.00 0.00 50 1012.5
20260505001112 23 188 6.4 6.4 0.00 0.00 0.00 50 1012.7
20260505000609 23 182 3.2 4.8 0.00 0.00 0.00 49 1012.8
20260505000107 23 210 4.8 4.8 0.00 0.00 0.00 47 1012.9
20260504235603 23 207 6.4 6.4 0.00 0.00 0.00 47 1012.9
20260504235100 23 247 3.2 4.8 0.00 0.00 0.00 47 1012.9
20260504234557 23 165 4.8 4.8 0.00 0.00 0.00 46 1012.9
20260504234054 23 161 9.7 11.3 0.00 0.00 0.00 46 1012.8
20260504233549 23 154 4.8 6.4 0.00 0.00 0.00 45 1012.8
20260504233046 24 207 9.7 12.9 0.00 0.00 0.00 44 1012.7
20260504232543 24 222 9.7 11.3 0.00 0.00 0.00 44 1012.9
20260504232041 25 167 4.8 4.8 0.00 0.00 0.00 43 1013.0
20260504231537 25 225 3.2 3.2 0.00 0.00 0.00 45 1013.2
20260504231033 25 173 8.0 11.3 0.00 0.00 0.00 44 1013.1
20260504230530 25 164 9.7 11.3 0.00 0.00 0.00 43 1013.1
20260504230029 25 189 6.4 6.4 0.00 0.00 0.00 43 1013.2
20260504225525 25 168 9.7 11.3 0.00 0.00 0.00 41 1013.1
20260504225023 25 174 8.0 9.7 0.00 0.00 0.00 42 1013.3
20260504224519 25 269 4.8 4.8 0.00 0.00 0.00 41 1013.2
20260504224016 25 229 6.4 6.4 0.00 0.00 0.00 42 1013.3
20260504223513 25 197 9.7 12.9 0.00 0.00 0.00 41 1013.2
20260504223009 25 149 4.8 6.4 0.00 0.00 0.00 42 1013.5
20260504222506 25 207 6.4 6.4 0.00 0.00 0.00 39 1013.2
20260504222003 25 197 8.0 9.7 0.00 0.00 0.00 43 1013.4
20260504221500 25 224 9.7 11.3 0.00 0.00 0.00 42 1013.5
20260504220957 25 132 3.2 3.2 0.00 0.00 0.00 40 1013.6
20260504220454 25 195 9.7 12.9 0.00 0.00 0.00 40 1013.6
20260504215950 26 198 9.7 11.3 0.00 0.00 0.00 41 1013.6
20260504215447 25 221 8.0 11.3 0.00 0.00 0.00 42 1013.7
20260504214944 25 193 6.4 6.4 0.00 0.00 0.00 40 1013.9
20260504214440 25 207 8.0 11.3 0.00 0.00 0.00 41 1013.9
20260504213937 26 194 11.3 14.5 0.00 0.00 0.00 39 1013.7
20260504213433 25 210 3.2 3.2 0.00 0.00 0.00 44 1013.7
20260504212931 26 235 9.7 12.9 0.00 0.00 0.00 43 1013.7
20260504212426 25 181 4.8 4.8 0.00 0.00 0.00 42 1013.8
20260504211924 25 204 12.9 14.5 0.00 0.00 0.00 43 1014.0
20260504211420 25 197 14.5 16.1 0.00 0.00 0.00 44 1013.9
20260504210918 25 174 6.4 9.7 0.00 0.00 0.00 45 1014.0
20260504210415 25 164 6.4 11.3 0.00 0.00 0.00 45 1014.0
20260504205912 26 182 12.9 16.1 0.00 0.00 0.00 43 1014.0
20260504205409 26 198 3.2 4.8 0.00 0.00 0.00 43 1014.4
20260504204907 25 176 4.8 4.8 0.00 0.00 0.00 45 1014.4
20260504204405 26 261 8.0 11.3 0.00 0.00 0.00 43 1014.4
20260504203905 25 205 8.0 11.3 0.00 0.00 0.00 44 1014.4
20260504203401 25 231 6.4 6.4 0.00 0.00 0.00 42 1014.4
20260504202857 26 183 9.7 12.9 0.00 0.00 0.00 43 1014.6
20260504202354 26 208 4.8 4.8 0.00 0.00 0.00 47 1014.7
20260504201850 26 178 4.8 6.4 0.00 0.00 0.00 43 1014.5
20260504201348 25 130 3.2 4.8 0.00 0.00 0.00 45 1014.8
20260504200845 25 239 9.7 12.9 0.00 0.00 0.00 46 1014.8
20260504200342 25 176 9.7 11.3 0.00 0.00 0.00 43 1014.9
20260504195838 25 184 8.0 11.3 0.00 0.00 0.00 42 1014.9
20260504195334 25 156 12.9 14.5 0.00 0.00 0.00 44 1015.1
20260504194831 25 264 8.0 12.9 0.00 0.00 0.00 45 1015.2
20260504194327 25 211 6.4 11.3 0.00 0.00 0.00 43 1015.2
20260504193823 25 141 9.7 12.9 0.00 0.00 0.00 46 1015.3
20260504193321 25 152 16.1 17.7 0.00 0.00 0.00 44 1015.1
20260504192819 25 276 4.8 4.8 0.00 0.00 0.00 42 1015.7
20260504192317 25 270 6.4 6.4 0.00 0.00 0.00 44 1015.7
20260504191815 25 114 6.4 9.7 0.00 0.00 0.00 45 1015.8
20260504191312 26 206 12.9 14.5 0.00 0.00 0.00 45 1015.7
20260504190808 25 123 4.8 4.8 0.00 0.00 0.00 46 1015.7
20260504190304 26 132 11.3 14.5 0.00 0.00 0.00 43 1015.8
20260504185800 25 153 4.8 12.9 0.00 0.00 0.00 46 1015.7
20260504185258 25 238 8.0 9.7 0.00 0.00 0.00 46 1015.6
20260504184754 25 231 14.5 17.7 0.00 0.00 0.00 43 1015.7
20260504184250 25 210 6.4 6.4 0.00 0.00 0.00 43 1015.8
20260504183746 25 192 6.4 9.7 0.00 0.00 0.00 45 1015.8
20260504183243 25 153 9.7 11.3 0.00 0.00 0.00 47 1016.1
20260504182741 25 164 9.7 12.9 0.00 0.00 0.00 45 1016.0
20260504182238 25 186 3.2 4.8 0.00 0.00 0.00 44 1016.0
20260504181735 25 226 9.7 11.3 0.00 0.00 0.00 45 1016.2
20260504181232 25 176 9.7 12.9 0.00 0.00 0.00 45 1016.1
20260504180731 25 167 6.4 9.7 0.00 0.00 0.00 44 1016.5
20260504180230 25 208 6.4 9.7 0.00 0.00 0.00 44 1016.4
20260504175727 25 115 6.4 6.4 0.00 0.00 0.00 48 1016.6
20260504175223 25 236 6.4 6.4 0.00 0.00 0.00 48 1016.5
20260504174722 25 224 11.3 14.5 0.00 0.00 0.00 45 1016.6
20260504174220 25 141 9.7 12.9 0.00 0.00 0.00 47 1016.7
20260504173715 25 146 6.4 9.7 0.00 0.00 0.00 45 1016.7
20260504173213 25 216 6.4 6.4 0.00 0.00 0.00 43 1016.8
20260504172709 24 210 6.4 9.7 0.00 0.00 0.00 44 1016.8
20260504172206 25 249 9.7 12.9 0.00 0.00 0.00 45 1016.6
20260504171702 24 148 9.7 11.3 0.00 0.00 0.00 46 1016.9
20260504171159 24 153 11.3 14.5 0.00 0.00 0.00 44 1016.7
20260504170655 24 173 14.5 17.7 0.00 0.00 0.00 45 1016.9
20260504170153 24 187 11.3 16.1 0.00 0.00 0.00 48 1016.9
20260504160112 23 138 11.3 12.9 0.00 0.00 0.00 45 1017.3
20260504151039 23 176 8.0 9.7 0.00 0.00 0.00 51 1017.6
20260504150537 22 157 4.8 6.4 0.00 0.00 0.00 57 1017.5
20260504141002 21 276 1.6 1.6 0.00 0.00 0.00 63 1017.5
20260504140459 20 157 4.8 4.8 0.00 0.00 0.00 67 1017.8
20260504130423 20 97 0.0 0.0 0.00 0.00 0.00 74 1017.4
20260504110310 11 96 0.0 0.0 0.00 0.00 0.00 96 1016.8
20260504100228 11 80 0.0 0.0 0.00 0.00 0.00 94 1016.9
20260504081621 12 80 0.0 0.0 0.00 0.00 0.00 88 1017.0
20260504081117 12 80 0.0 0.0 0.00 0.00 0.00 88 1017.3
20260504080614 12 80 0.0 0.0 0.00 0.00 0.00 87 1017.2
20260504080110 13 80 0.0 0.0 0.00 0.00 0.00 86 1017.1
20260504050427 15 129 0.0 0.0 0.00 0.00 0.00 81 1018.2
20260504045924 15 129 1.6 1.6 0.00 0.00 0.00 81 1018.4
20260504045420 15 164 1.6 1.6 0.00 0.00 0.00 81 1018.3
20260504044916 15 137 0.0 0.0 0.00 0.00 0.00 80 1018.3
20260504044414 15 137 0.0 0.0 0.00 0.00 0.00 80 1018.5
20260504043911 15 137 0.0 0.0 0.00 0.00 0.00 79 1018.5
20260504043408 15 137 0.0 0.0 0.00 0.00 0.00 78 1018.6
20260504042905 16 137 0.0 0.0 0.00 0.00 0.00 78 1018.8
20260504042401 16 126 1.6 3.2 0.00 0.00 0.00 79 1018.6
20260504041858 16 118 3.2 3.2 0.00 0.00 0.00 79 1018.5
20260504041354 15 164 3.2 3.2 0.00 0.00 0.00 81 1018.5
20260504040850 15 136 3.2 4.8 0.00 0.00 0.00 80 1018.5
20260504040348 15 109 0.0 0.0 0.00 0.00 0.00 80 1018.7